Wind_Speed
22 22 23 23 23 22 22 22 21 20 20 20 20 20 20 20 20 20 20 20 20 20 21 22 21 21 21 21 20 19 19 20 21 20 19 18 18 18 18 19 19 19 18
23 24 24 25 25 24 24 23 22 23 22 22 22 21 21 22 22 22 21 22 22 21 21 22 23 23 23 23 22 22 21 22 23 23 22 21 20 20 20 20 21 21 20
24 24 24 25 26 25 25 24 24 23 23 23 23 23 23 23 23 23 24 24 23 23 23 23 24 25 25 25 24 24 24 24 25 25 24 23 23 22 22 22 22 23 23
24 25 25 25 26 26 26 26 25 24 24 25 25 25 25 25 25 26 25 25 25 25 25 25 25 26 26 26 26 25 25 25 26 26 25 25 24 24 24 24 24 24 25
24 25 25 25 25 26 26 26 26 26 26 26 26 27 27 26 27 27 27 26 27 27 26 26 27 27 28 27 26 26 27 27 28 27 27 26 26 26 25 25 26 26 26
25 26 26 26 26 27 27 27 27 27 27 27 28 28 28 28 28 29 29 29 29 28 28 28 28 28 29 29 28 28 28 28 28 29 29 29 28 28 28 28 28 28 29
26 27 27 27 26 27 27 28 28 28 28 28 29 29 30 30 30 30 30 30 30 30 30 30 30 30 30 31 31 30 30 30 29 30 30 30 30 30 31 31 30 30 30
27 28 28 28 28 28 29 29 29 29 29 29 30 30 30 31 31 30 31 31 31 31 31 31 31 31 31 32 32 32 32 32 31 31 31 31 32 33 33 32 32 32 32
28 29 29 30 30 30 31 31 32 31 31 31 31 31 30 31 31 31 31 32 32 32 32 32 32 32 32 32 33 33 33 33 33 34 33 33 32 34 34 33 33 33 33
29 30 31 31 32 32 32 32 31 31 31 31 32 31 31 31 31 31 31 32 32 32 32 32 32 33 33 32 33 34 34 33 33 33 34 34 34 34 35 35 35 34 35
30 31 32 33 33 33 33 32 31 32 32 31 31 31 32 32 32 31 31 32 32 32 32 32 32 32 32 33 33 33 34 35 35 34 34 34 35 35 36 35 35 35 35
32 32 33 33 33 33 33 33 33 33 32 32 32 32 32 32 32 32 32 32 32 32 31 31 31 31 31 31 32 33 33 34 35 36 35 35 34 35 35 36 36 35 36
32 33 34 34 34 35 34 34 34 34 33 32 32 32 32 32 32 32 32 31 32 32 32 32 31 31 31 31 31 32 32 32 33 35 36 35 35 36 35 36 36 36 36
31 32 32 32 33 33 33 33 33 33 33 32 32 32 32 33 33 32 32 32 31 31 31 31 32 31 31 31 31 30 31 32 33 34 35 35 35 36 36 36 37 37 37
27 28 29 30 29 30 31 31 31 31 32 32 31 32 32 32 31 31 31 31 31 31 31 31 32 31 31 31 31 31 30 32 32 33 33 34 35 35 35 35 35 36 36
24 25 25 26 27 28 28 29 30 30 30 31 31 30 31 31 30 30 30 30 30 30 31 31 31 31 32 32 31 31 30 30 31 32 32 32 32 33 34 33 33 34 35
23 23 22 23 24 25 25 25 26 27 27 28 28 28 29 29 29 30 30 29 29 29 29 30 30 30 30 30 30 29 29 30 30 30 30 31 31 31 32 33 33 33 34
22 23 22 22 22 23 23 23 23 23 24 25 25 26 26 27 28 28 28 28 28 28 28 28 29 29 29 29 28 27 28 28 27 28 28 28 28 29 29 29 31 31 32
20 20 21 21 21 21 22 22 21 22 22 22 23 23 23 24 25 26 26 26 26 25 25 26 26 27 27 27 27 26 27 26 26 26 25 25 25 26 27 28 29 28 29
18 19 18 18 19 19 19 19 20 20 20 20 20 20 20 21 21 22 22 22 22 22 22 23 23 24 24 24 24 24 24 24 24 24 23 23 23 24 25 25 26 27 28
16 16 16 16 16 16 16 17 17 16 16 16 16 16 17 17 18 19 19 18 19 19 19 19 20 20 20 20 20 21 21 20 21 21 21 21 22 23 24 24 24 24 25
14 14 13 13 13 13 13 13 13 13 13 13 13 13 13 13 13 14 14 15 15 16 17 16 16 16 17 17 17 18 17 18 19 19 20 20 21 21 22 22 22 23 23
13 13 12 12 11 11 11 10 10 10 10 10 9 9 9 9 9 10 10 11 11 11 12 11 11 12 13 13 14 14 15 15 15 16 17 17 18 19 19 20 21 21 22
10 10 9 9 9 9 8 8 7 7 7 6 6 5 5 6 6 6 7 7 8 8 8 8 9 9 9 10 11 12 12 12 12 13 14 15 16 17 18 19 19 20 20
9 8 8 8 8 8 7 6 5 3 3 3 3 3 3 3 4 4 5 5 5 5 5 5 6 6 7 7 8 8 9 9 10 11 12 13 14 15 15 16 16 16 17
7 7 6 7 7 6 5 5 4 2 1 0 1 2 2 3 3 4 4 3 3 2 2 3 3 4 4 5 5 5 6 6 7 8 10 11 12 12 13 13 14 15 16
Wind_Direction
262 263 263 265 266 266 265 265 265 264 266 267 267 267 268 271 269 269 267 268 266 263 264 264 264 262 260 260 255 253 248 244 243 243 243 245 245 247 250 251 250 250 251
263 265 265 265 266 266 266 267 267 266 266 266 265 266 268 270 269 269 268 266 265 265 265 264 262 262 259 259 256 252 251 249 246 244 243 245 246 248 251 252 252 252 253
262 265 266 266 267 267 268 267 267 268 267 266 265 264 265 266 266 268 266 264 263 263 264 264 262 259 259 260 258 256 253 251 248 245 245 246 247 248 251 252 253 254 254
263 265 266 267 267 267 267 267 266 265 265 266 265 265 264 264 264 265 264 263 262 262 264 263 262 261 260 260 260 259 257 254 251 247 247 248 250 251 251 252 253 255 256
265 265 266 267 267 267 267 266 267 265 265 265 264 265 265 265 265 264 263 263 263 262 263 263 262 261 259 258 259 259 258 257 255 251 250 250 252 254 254 254 254 254 255
265 266 267 268 268 267 267 266 267 266 265 265 265 265 266 265 265 264 263 262 261 262 263 263 262 260 259 257 258 258 258 258 256 254 253 252 252 253 255 256 256 256 256
265 266 267 268 269 268 268 267 267 266 265 266 267 267 267 267 267 265 264 262 260 261 262 262 261 261 260 258 258 258 257 257 257 256 255 254 255 254 255 255 256 258 258
267 267 267 268 269 269 269 267 267 265 265 265 266 266 267 267 267 267 265 263 262 262 261 261 260 260 260 258 257 257 259 259 257 256 256 257 256 257 257 256 256 257 259
269 269 268 269 269 269 270 270 268 268 268 267 266 265 267 266 266 266 266 265 263 262 262 261 260 260 261 260 257 257 258 258 258 258 256 257 259 258 257 259 258 258 259
271 271 270 269 269 270 270 269 267 267 268 267 266 266 267 266 266 266 265 265 265 264 263 262 261 261 261 261 259 258 257 257 258 259 259 259 260 259 258 261 259 260 261
273 273 272 272 271 270 270 269 267 266 266 266 265 265 266 265 265 265 264 263 264 264 263 263 262 261 262 262 261 259 257 257 258 259 260 260 261 261 260 260 260 260 261
275 274 274 272 272 271 270 269 268 267 266 266 266 265 265 264 265 264 263 261 262 263 262 261 261 261 262 263 263 262 259 258 259 259 261 263 262 262 263 264 262 261 263
276 274 274 273 272 271 270 270 269 267 266 266 266 265 265 265 266 265 262 262 263 263 264 263 263 263 263 263 265 264 261 260 260 260 261 263 263 263 264 262 262 265 267
278 276 275 275 272 271 271 271 269 267 266 266 266 265 265 264 265 264 262 262 262 263 264 263 263 263 262 264 265 266 263 263 263 262 263 263 264 264 263 263 266 266 267
279 278 277 275 274 274 273 270 269 267 266 265 265 265 264 264 264 263 262 261 261 261 262 262 261 261 261 263 264 265 265 264 263 265 265 265 266 266 265 267 268 268 268
282 281 280 277 276 275 274 271 267 266 265 265 265 264 263 262 262 262 262 262 261 261 261 261 260 260 261 262 264 264 265 265 265 266 267 267 268 268 268 270 269 268 270
283 282 284 282 278 276 276 274 271 267 266 266 264 263 263 261 261 261 261 262 261 261 261 261 260 261 263 264 264 265 265 265 266 267 268 269 270 271 271 272 271 272 273
283 286 287 284 282 280 277 275 274 270 269 267 265 264 263 261 260 260 261 261 262 262 262 262 261 262 263 264 264 265 265 266 268 269 271 272 272 274 276 276 276 276 277
286 288 287 285 284 281 278 277 274 272 271 269 266 264 262 260 260 260 259 260 262 262 262 262 261 262 262 263 263 263 266 268 270 272 275 274 275 276 278 279 278 280 281
291 291 289 288 285 283 281 279 278 274 271 269 268 264 263 261 260 260 259 260 261 261 261 261 261 262 262 263 262 261 264 267 269 272 275 276 277 278 279 281 282 283 285
297 296 294 291 289 287 283 280 279 278 275 272 268 264 261 260 259 259 258 258 258 258 259 259 260 260 261 261 260 262 265 267 271 274 276 277 279 280 280 283 286 288 288
301 298 297 297 297 294 291 287 283 278 274 271 269 264 260 257 256 255 254 253 254 255 254 256 256 257 259 261 262 263 266 268 271 275 277 278 280 283 284 286 288 287 288
300 300 300 300 301 300 295 293 289 281 279 277 269 262 258 253 249 251 250 247 246 247 251 252 256 260 264 264 261 262 265 268 271 277 279 280 284 287 288 290 291 290 290
307 306 306 307 306 307 307 300 295 286 285 282 272 264 256 248 243 236 237 243 246 248 248 250 253 258 263 265 266 267 267 271 277 282 283 285 289 291 292 295 296 294 294
319 318 317 316 316 317 318 321 318 308 297 280 259 240 231 218 215 213 220 231 234 231 239 247 256 261 266 269 273 273 274 280 287 288 290 292 295 298 298 299 301 302 303
329 333 334 332 332 337 342 349 353 4 354 246 185 178 175 169 156 161 167 166 177 198 234 241 251 266 277 281 278 277 285 291 294 295 297 300 303 306 305 306 310 311 311
Height
5879 5879 5879 5879 5879 5879 5879 5879 5879 5879 5880 5880 5880 5880 5880 5880 5880 5880 5880 5881 5881 5881 5881 5881 5881 5881 5881 5882 5882 5883 5884 5885 5886 5887 5888 5889 5890 5891 5891 5892 5893 5893 5893
5874 5874 5874 5874 5874 5874 5874 5874 5874 5874 5874 5874 5875 5875 5875 5875 5875 5875 5875 5876 5876 5876 5876 5876 5876 5876 5876 5877 5877 5878 5879 5880 5881 5882 5883 5884 5885 5886 5887 5888 5888 5889 5889
5869 5869 5869 5869 5869 5869 5869 5869 5869 5868 5869 5869 5869 5869 5869 5870 5870 5870 5870 5870 5870 5871 5871 5871 5871 5871 5871 5872 5872 5873 5874 5875 5876 5877 5878 5879 5880 5881 5882 5883 5883 5884 5884
5863 5864 5864 5864 5863 5863 5863 5863 5863 5863 5863 5863 5863 5863 5864 5864 5864 5864 5864 5864 5864 5865 5865 5866 5866 5866 5867 5867 5867 5868 5868 5869 5871 5872 5872 5873 5874 5875 5876 5877 5878 5878 5879
5859 5858 5858 5858 5857 5857 5857 5857 5857 5857 5857 5857 5857 5857 5858 5858 5858 5858 5859 5859 5859 5859 5859 5860 5860 5861 5861 5862 5862 5862 5863 5864 5864 5866 5867 5868 5869 5869 5870 5871 5872 5872 5873
5853 5853 5853 5852 5852 5851 5851 5851 5851 5851 5851 5851 5851 5851 5852 5852 5852 5852 5852 5852 5853 5853 5853 5854 5854 5854 5855 5856 5856 5857 5857 5858 5858 5859 5860 5861 5862 5863 5864 5865 5865 5866 5866
5847 5847 5847 5846 5846 5845 5845 5844 5844 5844 5844 5844 5845 5845 5845 5845 5845 5845 5845 5846 5846 5846 5847 5847 5847 5848 5849 5850 5850 5850 5851 5852 5852 5853 5854 5854 5855 5856 5857 5857 5858 5859 5859
5841 5840 5840 5839 5839 5839 5838 5837 5837 5837 5837 5837 5838 5838 5838 5839 5838 5838 5838 5838 5839 5839 5840 5840 5841 5841 5842 5843 5844 5844 5844 5845 5846 5846 5847 5847 5848 5849 5849 5850 5851 5851 5852
5834 5833 5833 5832 5832 5831 5831 5830 5830 5830 5830 5830 5830 5830 5831 5831 5831 5831 5831 5831 5831 5832 5832 5833 5834 5834 5835 5835 5836 5837 5838 5838 5839 5839 5840 5840 5841 5841 5842 5842 5843 5843 5844
5826 5826 5825 5824 5824 5823 5823 5822 5822 5822 5822 5822 5822 5822 5823 5823 5823 5823 5824 5824 5824 5824 5825 5826 5826 5827 5828 5828 5829 5829 5830 5831 5832 5832 5833 5833 5834 5834 5834 5834 5835 5835 5835
5818 5817 5817 5816 5815 5815 5815 5814 5814 5814 5814 5814 5814 5814 5814 5815 5815 5816 5816 5817 5817 5817 5817 5818 5819 5820 5820 5821 5821 5822 5822 5823 5824 5825 5825 5826 5826 5826 5826 5826 5827 5827 5827
5809 5809 5808 5807 5806 5806 5806 5806 5806 5806 5806 5806 5806 5806 5807 5807 5807 5808 5809 5809 5809 5810 5810 5811 5812 5812 5813 5813 5814 5814 5815 5816 5816 5817 5817 5818 5818 5819 5819 5819 5819 5819 5819
5801 5800 5799 5798 5797 5797 5797 5797 5797 5797 5797 5797 5797 5798 5798 5799 5799 5800 5800 5801 5802 5802 5803 5803 5804 5805 5806 5806 5807 5807 5808 5808 5809 5809 5810 5810 5810 5810 5811 5811 5811 5811 5811
5792 5791 5789 5788 5788 5787 5787 5787 5787 5787 5788 5788 5788 5789 5789 5790 5791 5791 5792 5793 5794 5795 5795 5796 5797 5798 5799 5799 5799 5800 5800 5801 5801 5801 5802 5802 5803 5803 5803 5803 5803 5803 5802
5784 5782 5781 5780 5779 5778 5778 5778 5778 5778 5779 5779 5780 5780 5781 5782 5782 5783 5784 5785 5787 5788 5788 5789 5790 5790 5791 5792 5792 5792 5793 5793 5793 5793 5794 5794 5795 5795 5795 5794 5794 5794 5794
5777 5775 5773 5772 5771 5770 5769 5769 5769 5769 5770 5770 5771 5771 5772 5773 5774 5775 5776 5777 5778 5780 5780 5782 5782 5783 5784 5784 5785 5785 5785 5786 5786 5786 5786 5787 5787 5787 5787 5786 5786 5786 5785
5770 5768 5766 5765 5763 5763 5762 5761 5761 5761 5761 5762 5762 5763 5764 5765 5766 5768 5769 5770 5771 5772 5773 5774 5775 5776 5776 5777 5778 5778 5778 5779 5779 5779 5779 5779 5779 5779 5779 5778 5778 5778 5777
5764 5762 5761 5759 5757 5756 5755 5755 5754 5754 5754 5754 5755 5755 5757 5758 5759 5760 5761 5763 5764 5765 5766 5767 5768 5769 5769 5770 5771 5771 5772 5772 5772 5772 5772 5772 5772 5772 5772 5771 5771 5770 5769
5759 5757 5755 5753 5751 5750 5749 5749 5748 5747 5747 5747 5748 5749 5750 5751 5752 5753 5754 5756 5757 5758 5759 5760 5761 5762 5762 5763 5764 5765 5765 5766 5766 5766 5766 5766 5766 5765 5765 5764 5764 5763 5762
5754 5752 5750 5748 5746 5745 5744 5743 5742 5741 5741 5741 5741 5742 5743 5744 5746 5747 5748 5750 5751 5752 5753 5754 5755 5756 5756 5757 5758 5759 5760 5760 5761 5761 5761 5760 5760 5759 5759 5758 5757 5756 5754
5749 5747 5745 5743 5741 5740 5739 5738 5737 5736 5736 5736 5736 5737 5738 5739 5740 5742 5743 5744 5746 5747 5748 5749 5750 5750 5751 5752 5753 5753 5754 5755 5755 5755 5755 5755 5754 5754 5753 5752 5751 5749 5748
5746 5744 5742 5740 5738 5736 5735 5734 5733 5732 5732 5732 5732 5732 5733 5734 5735 5737 5738 5740 5741 5742 5743 5744 5745 5746 5747 5748 5748 5749 5749 5750 5750 5751 5750 5750 5749 5748 5748 5747 5745 5744 5743
5743 5741 5739 5737 5735 5733 5732 5731 5730 5729 5728 5728 5728 5729 5730 5731 5732 5733 5735 5736 5737 5739 5740 5741 5742 5742 5743 5744 5744 5744 5745 5745 5746 5746 5746 5745 5745 5744 5742 5741 5740 5738 5737
5740 5738 5736 5734 5733 5731 5729 5728 5727 5726 5726 5726 5726 5727 5728 5729 5730 5731 5732 5734 5735 5736 5737 5738 5739 5740 5741 5741 5741 5741 5741 5742 5742 5742 5742 5742 5740 5739 5738 5736 5735 5733 5732
5738 5736 5734 5733 5731 5729 5728 5727 5726 5725 5725 5725 5725 5726 5727 5728 5728 5730 5731 5732 5733 5734 5735 5736 5737 5738 5738 5739 5739 5739 5739 5739 5739 5739 5738 5738 5737 5735 5734 5732 5731 5729 5727
5737 5735 5733 5732 5730 5728 5727 5726 5725 5725 5725 5725 5725 5726 5726 5727 5728 5729 5730 5731 5733 5734 5735 5735 5736 5737 5737 5737 5737 5737 5737 5737 5736 5736 5735 5734 5733 5732 5730 5729 5727 5724 5722